Погода в Слободе

Россия / Вологодская область     58°57′35″N   40°13′48″E
темп.,
°C
ветер,
м/с
пор.,
м/с
влажн.,
%
обл.,
%
осадки,
мм/ч
давл.,
гПа
погр.,
м
6 мая, чт
чт600:000ю22908 0.0 100822
03:000ююв239283 0.0 100952
06:00+3вюв479271 0.0 1008262
09:00+7юв5883100 0.0 1006589
12:00+11ююв81381100 0.3 1004698
15:00+15ю71469100 0.7 10011460
18:00+14ю815696 0.0 9991244
21:00+11ю81677100 0.1 9991216
7 мая, пт
пт700:00+7юз6128896 1.6 1002780
03:00+6юз5118828 1.6 1004674
06:00+6ююз51089100 0.0 1005947
09:00+7юз6976100 0.3 10071099
12:00+8юз61066100 0.1 10081595
15:00+12зюз7114586 0.1 10082462
18:00+10юз510585 0.1 10091531
21:00+6ю36835 0.1 1011113
8 мая, сб
сб800:00+4ю39915 0.0 1011187
03:00+4ююв31093100 0.0 1011203
06:00+7ю51479100 0.0 1010499
09:00+11ююв71460100 0.0 10091304
12:00+12ююв81559100 0.0 10082121
15:00+12ююв91461100 0.1 10061728
18:00+7юв71689100 0.9 10051339
21:00+8ююв61293100 3.5 1001969
9 мая, вс
вс900:00+8ююв61295100 1.8 999759
03:00+8ю71390100 2.1 999851
06:00+6ююз71286100 0.1 10001111
09:00+3юз71296100 0.2 1003866
12:00+4зюз81389100 0.2 10081196
15:00+6з6138098 0.5 10141433
18:00+8зсз59695 0.3 10181267
21:00+4зюз22814 0.3 102117
10 мая, пн
пн1000:00+2зюз33871 0.0 102441
03:00+2юз22815 0.0 102611
06:00+4ююз367569 0.0 1028143
09:00+10юз585975 0.0 1028574
12:00+13юз684311 0.0 10281708
15:00+14зюз684682 0.0 10281547
18:00+13юз595863 0.0 1028991
21:00+8ююз397921 0.0 1029144